Time,TemperatureF,DewpointF,PressureIn,WindDirection,WindDirectionDegrees,WindSpeedMPH,WindSpeedGustMPH,Humidity,HourlyPrecipIn,Conditions,Clouds,dailyrainin,SoftwareType,DateUTC
2013-09-27 00:01:00,53.8,52.0,30.16,NW,315,4.9,6.0,95,0.00,,,0.00,Rainwise IP-100,2013-09-27 04:01:00,
2013-09-27 00:06:00,53.8,52.0,30.16,NW,315,4.7,6.0,95,0.00,,,0.00,Rainwise IP-100,2013-09-27 04:06:00,
2013-09-27 00:11:00,53.8,52.0,30.16,NW,315,7.0,7.0,95,0.00,,,0.00,Rainwise IP-100,2013-09-27 04:11:00,
2013-09-27 00:16:00,53.7,52.0,30.16,NNW,337,6.3,7.0,96,0.00,,,0.00,Rainwise IP-100,2013-09-27 04:16:00,
2013-09-27 00:21:00,53.6,52.0,30.16,NNW,337,6.5,7.0,96,0.00,,,0.00,Rainwise IP-100,2013-09-27 04:21:00,
2013-09-27 00:26:00,53.5,52.0,30.16,NW,315,8.2,8.2,95,0.00,,,0.00,Rainwise IP-100,2013-09-27 04:26:00,
2013-09-27 00:31:00,53.4,52.0,30.16,NW,315,7.5,8.0,95,0.00,,,0.00,Rainwise IP-100,2013-09-27 04:31:00,
2013-09-27 00:37:00,53.2,51.0,30.16,NNW,337,6.5,7.0,96,0.00,,,0.00,Rainwise IP-100,2013-09-27 04:37:00,
2013-09-27 00:42:00,53.1,51.0,30.16,NW,315,5.8,7.0,96,0.00,,,0.00,Rainwise IP-100,2013-09-27 04:42:00,
2013-09-27 00:47:00,53.2,51.0,30.16,NNW,337,5.8,7.0,96,0.00,,,0.00,Rainwise IP-100,2013-09-27 04:47:00,
2013-09-27 00:52:00,53.2,51.0,30.16,NNW,337,4.0,6.0,96,0.00,,,0.00,Rainwise IP-100,2013-09-27 04:52:00,
2013-09-27 00:57:00,53.1,51.0,30.17,NNW,337,1.9,6.0,96,0.00,,,0.00,Rainwise IP-100,2013-09-27 04:57:00,
2013-09-27 01:02:00,53.1,51.0,30.17,NNW,337,3.7,4.0,96,0.00,,,0.00,Rainwise IP-100,2013-09-27 05:02:00,
2013-09-27 01:07:00,53.2,51.0,30.17,NW,315,4.2,4.2,96,0.00,,,0.00,Rainwise IP-100,2013-09-27 05:07:00,
2013-09-27 01:12:00,53.2,51.0,30.17,NW,315,4.2,5.0,96,0.00,,,0.00,Rainwise IP-100,2013-09-27 05:12:00,
2013-09-27 01:18:00,53.0,51.0,30.17,NNW,337,4.2,5.0,96,0.00,,,0.00,Rainwise IP-100,2013-09-27 05:18:00,
2013-09-27 01:23:00,53.0,51.0,30.17,NNW,337,4.4,6.0,96,0.00,,,0.00,Rainwise IP-100,2013-09-27 05:23:00,
2013-09-27 01:28:00,53.0,51.0,30.18,NW,315,5.8,6.0,96,0.00,,,0.00,Rainwise IP-100,2013-09-27 05:28:00,
2013-09-27 01:33:00,52.8,51.0,30.18,NNW,337,5.1,6.0,96,0.00,,,0.00,Rainwise IP-100,2013-09-27 05:33:00,
2013-09-27 01:38:00,52.8,51.0,30.18,NNW,337,5.1,5.1,96,0.00,,,0.00,Rainwise IP-100,2013-09-27 05:38:00,
2013-09-27 01:43:00,52.8,51.0,30.18,NNW,337,4.0,5.0,96,0.00,,,0.00,Rainwise IP-100,2013-09-27 05:43:00,
2013-09-27 01:48:00,52.8,51.0,30.18,NNW,337,5.4,6.0,96,0.00,,,0.00,Rainwise IP-100,2013-09-27 05:48:00,
2013-09-27 01:54:00,52.8,52.0,30.18,NW,315,6.3,6.3,97,0.00,,,0.00,Rainwise IP-100,2013-09-27 05:54:00,
2013-09-27 01:59:00,52.8,52.0,30.18,NW,315,6.1,7.0,97,0.00,,,0.00,Rainwise IP-100,2013-09-27 05:59:00,
2013-09-27 02:04:00,52.9,52.0,30.18,NNW,337,6.1,7.0,97,0.00,,,0.00,Rainwise IP-100,2013-09-27 06:04:00,
2013-09-27 02:09:00,52.9,52.0,30.18,NW,315,6.1,8.0,97,0.00,,,0.00,Rainwise IP-100,2013-09-27 06:09:00,
2013-09-27 02:14:00,52.8,52.0,30.18,NW,315,6.3,8.0,97,0.00,,,0.00,Rainwise IP-100,2013-09-27 06:14:00,
2013-09-27 02:19:00,52.7,52.0,30.18,NNW,337,7.0,8.0,97,0.00,,,0.00,Rainwise IP-100,2013-09-27 06:19:00,
2013-09-27 02:24:00,52.7,52.0,30.18,NNW,337,7.2,8.0,97,0.00,,,0.00,Rainwise IP-100,2013-09-27 06:24:00,
2013-09-27 02:29:00,52.5,52.0,30.19,NNW,337,5.8,8.0,97,0.00,,,0.00,Rainwise IP-100,2013-09-27 06:29:00,
2013-09-27 02:35:00,52.5,52.0,30.18,NNW,337,6.3,7.0,97,0.00,,,0.00,Rainwise IP-100,2013-09-27 06:35:00,
2013-09-27 02:40:00,52.4,51.0,30.18,NNW,337,7.2,8.0,97,0.00,,,0.00,Rainwise IP-100,2013-09-27 06:40:00,
2013-09-27 02:45:00,52.3,51.0,30.19,NW,315,8.2,8.2,97,0.00,,,0.00,Rainwise IP-100,2013-09-27 06:45:00,
2013-09-27 02:50:00,52.2,51.0,30.18,NNW,337,5.8,8.0,97,0.00,,,0.00,Rainwise IP-100,2013-09-27 06:50:00,
2013-09-27 02:55:00,52.3,51.0,30.18,NNW,337,4.9,8.0,97,0.00,,,0.00,Rainwise IP-100,2013-09-27 06:55:00,
2013-09-27 03:00:00,52.2,51.0,30.19,NW,315,4.9,7.0,97,0.00,,,0.00,Rainwise IP-100,2013-09-27 07:00:00,
2013-09-27 03:05:00,52.2,51.0,30.19,NW,315,5.1,7.0,97,0.00,,,0.00,Rainwise IP-100,2013-09-27 07:05:00,
2013-09-27 03:11:00,52.5,52.0,30.19,NW,315,5.1,6.0,97,0.00,,,0.00,Rainwise IP-100,2013-09-27 07:11:00,
2013-09-27 03:16:00,52.6,51.0,30.19,NNW,337,6.1,7.0,96,0.00,,,0.00,Rainwise IP-100,2013-09-27 07:16:00,
2013-09-27 03:21:00,52.6,51.0,30.19,NNW,337,4.7,7.0,96,0.00,,,0.00,Rainwise IP-100,2013-09-27 07:21:00,
2013-09-27 03:26:00,52.7,51.0,30.19,NNW,337,4.7,6.0,96,0.00,,,0.00,Rainwise IP-100,2013-09-27 07:26:00,
2013-09-27 03:31:00,52.8,51.0,30.19,NNW,337,4.0,5.0,96,0.00,,,0.00,Rainwise IP-100,2013-09-27 07:31:00,
2013-09-27 03:36:00,53.0,51.0,30.19,NW,315,5.4,5.4,96,0.00,,,0.00,Rainwise IP-100,2013-09-27 07:36:00,
2013-09-27 03:41:00,53.0,51.0,30.19,NW,315,5.4,6.0,95,0.00,,,0.00,Rainwise IP-100,2013-09-27 07:41:00,
2013-09-27 03:46:00,53.1,51.0,30.19,NNW,337,6.3,6.3,95,0.00,,,0.00,Rainwise IP-100,2013-09-27 07:46:00,
2013-09-27 03:51:00,53.0,51.0,30.19,NW,315,5.8,8.0,94,0.00,,,0.00,Rainwise IP-100,2013-09-27 07:51:00,
2013-09-27 03:56:00,52.9,51.0,30.19,NW,315,6.8,8.0,94,0.00,,,0.00,Rainwise IP-100,2013-09-27 07:56:00,
2013-09-27 04:01:00,52.7,51.0,30.19,NW,315,6.8,9.0,94,0.00,,,0.00,Rainwise IP-100,2013-09-27 08:01:00,
2013-09-27 04:06:00,52.6,51.0,30.19,NW,315,7.9,9.0,94,0.00,,,0.00,Rainwise IP-100,2013-09-27 08:06:00,
2013-09-27 04:12:00,52.4,50.0,30.19,NW,315,7.7,9.0,94,0.00,,,0.00,Rainwise IP-100,2013-09-27 08:12:00,
2013-09-27 04:17:00,52.3,50.0,30.19,NW,315,7.5,8.0,94,0.00,,,0.00,Rainwise IP-100,2013-09-27 08:17:00,
2013-09-27 04:22:00,52.4,50.0,30.19,NW,315,7.5,8.0,94,0.00,,,0.00,Rainwise IP-100,2013-09-27 08:22:00,
2013-09-27 04:27:00,52.4,50.0,30.19,NNW,337,7.0,8.0,94,0.00,,,0.00,Rainwise IP-100,2013-09-27 08:27:00,
2013-09-27 04:32:00,52.3,50.0,30.19,NNW,337,5.1,8.0,94,0.00,,,0.00,Rainwise IP-100,2013-09-27 08:32:00,
2013-09-27 04:37:00,52.4,50.0,30.20,NNW,337,5.4,7.0,94,0.00,,,0.00,Rainwise IP-100,2013-09-27 08:37:00,
2013-09-27 04:42:00,52.4,50.0,30.20,NNW,337,4.9,7.0,94,0.00,,,0.00,Rainwise IP-100,2013-09-27 08:42:00,
2013-09-27 04:48:00,52.4,50.0,30.20,NW,315,4.4,7.0,93,0.00,,,0.00,Rainwise IP-100,2013-09-27 08:48:00,
2013-09-27 04:53:00,52.6,50.0,30.20,NW,315,4.9,5.0,93,0.00,,,0.00,Rainwise IP-100,2013-09-27 08:53:00,
2013-09-27 04:58:00,52.6,50.0,30.20,NW,315,4.0,6.0,93,0.00,,,0.00,Rainwise IP-100,2013-09-27 08:58:00,
2013-09-27 05:03:00,52.6,50.0,30.21,NW,315,4.9,6.0,93,0.00,,,0.00,Rainwise IP-100,2013-09-27 09:03:00,
2013-09-27 05:08:00,52.6,50.0,30.21,NW,315,4.0,5.0,93,0.00,,,0.00,Rainwise IP-100,2013-09-27 09:08:00,
2013-09-27 05:13:00,52.5,50.0,30.21,NW,315,4.7,6.0,93,0.00,,,0.00,Rainwise IP-100,2013-09-27 09:13:00,
2013-09-27 05:18:00,52.5,50.0,30.21,NW,315,3.7,5.0,93,0.00,,,0.00,Rainwise IP-100,2013-09-27 09:18:00,
2013-09-27 05:23:00,52.4,50.0,30.21,NW,315,3.0,4.0,93,0.00,,,0.00,Rainwise IP-100,2013-09-27 09:23:00,
2013-09-27 05:29:00,52.3,50.0,30.21,NW,315,2.8,4.0,93,0.00,,,0.00,Rainwise IP-100,2013-09-27 09:29:00,
2013-09-27 05:34:00,52.1,50.0,30.22,NW,315,2.8,4.0,93,0.00,,,0.00,Rainwise IP-100,2013-09-27 09:34:00,
2013-09-27 05:39:00,52.0,50.0,30.22,NW,315,4.7,5.0,93,0.00,,,0.00,Rainwise IP-100,2013-09-27 09:39:00,
2013-09-27 05:44:00,52.0,50.0,30.21,NW,315,3.5,6.0,93,0.00,,,0.00,Rainwise IP-100,2013-09-27 09:44:00,
2013-09-27 05:49:00,52.1,50.0,30.22,NW,315,4.7,5.0,93,0.00,,,0.00,Rainwise IP-100,2013-09-27 09:49:00,
2013-09-27 05:54:00,52.1,50.0,30.22,NNW,337,2.1,5.0,93,0.00,,,0.00,Rainwise IP-100,2013-09-27 09:54:00,
2013-09-27 05:59:00,52.1,50.0,30.22,NNW,337,3.0,4.0,93,0.00,,,0.00,Rainwise IP-100,2013-09-27 09:59:00,
2013-09-27 06:05:00,52.2,50.0,30.22,NW,315,2.8,4.0,93,0.00,,,0.00,Rainwise IP-100,2013-09-27 10:05:00,
2013-09-27 06:10:00,52.2,50.0,30.23,NNW,337,3.0,4.0,93,0.00,,,0.00,Rainwise IP-100,2013-09-27 10:10:00,
2013-09-27 06:15:00,52.2,50.0,30.23,NW,315,4.2,4.2,93,0.00,,,0.00,Rainwise IP-100,2013-09-27 10:15:00,
2013-09-27 06:20:00,52.3,50.0,30.23,NW,315,3.0,4.0,93,0.00,,,0.00,Rainwise IP-100,2013-09-27 10:20:00,
2013-09-27 06:25:00,52.3,50.0,30.23,NW,315,2.3,4.0,93,0.00,,,0.00,Rainwise IP-100,2013-09-27 10:25:00,
2013-09-27 06:30:00,52.2,50.0,30.23,NW,315,1.6,3.0,93,0.00,,,0.00,Rainwise IP-100,2013-09-27 10:30:00,
2013-09-27 06:35:00,52.3,50.0,30.23,NW,315,1.9,3.0,93,0.00,,,0.00,Rainwise IP-100,2013-09-27 10:35:00,
2013-09-27 06:40:00,52.5,50.0,30.23,NW,315,3.7,4.0,93,0.00,,,0.00,Rainwise IP-100,2013-09-27 10:40:00,
2013-09-27 06:46:00,52.6,50.0,30.24,NW,315,4.4,5.0,93,0.00,,,0.00,Rainwise IP-100,2013-09-27 10:46:00,
2013-09-27 06:51:00,52.6,50.0,30.24,NW,315,4.0,5.0,93,0.00,,,0.00,Rainwise IP-100,2013-09-27 10:51:00,
2013-09-27 06:56:00,52.5,50.0,30.24,NW,315,3.0,5.0,93,0.00,,,0.00,Rainwise IP-100,2013-09-27 10:56:00,
2013-09-27 07:01:00,52.6,50.0,30.24,NNW,337,2.8,4.0,93,0.00,,,0.00,Rainwise IP-100,2013-09-27 11:01:00,
2013-09-27 07:06:00,52.7,50.0,30.24,NNW,337,2.6,4.0,93,0.00,,,0.00,Rainwise IP-100,2013-09-27 11:06:00,
2013-09-27 07:11:00,52.7,50.0,30.24,NNW,337,1.6,4.0,93,0.00,,,0.00,Rainwise IP-100,2013-09-27 11:11:00,
2013-09-27 07:16:00,52.8,50.0,30.25,North,360,4.2,4.2,93,0.00,,,0.00,Rainwise IP-100,2013-09-27 11:16:00,
2013-09-27 07:22:00,52.9,50.0,30.25,NNW,337,2.1,5.0,93,0.00,,,0.00,Rainwise IP-100,2013-09-27 11:22:00,
2013-09-27 07:27:00,53.1,50.0,30.25,NNW,337,2.8,5.0,92,0.00,,,0.00,Rainwise IP-100,2013-09-27 11:27:00,
2013-09-27 07:32:00,53.3,50.0,30.25,NW,315,4.9,5.0,92,0.00,,,0.00,Rainwise IP-100,2013-09-27 11:32:00,
2013-09-27 07:37:00,53.6,51.0,30.26,North,360,3.7,5.0,92,0.00,,,0.00,Rainwise IP-100,2013-09-27 11:37:00,
2013-09-27 07:42:00,53.7,50.0,30.26,NNW,337,5.8,9.0,91,0.00,,,0.00,Rainwise IP-100,2013-09-27 11:42:00,
2013-09-27 07:47:00,54.0,51.0,30.26,North,360,5.6,8.0,90,0.00,,,0.00,Rainwise IP-100,2013-09-27 11:47:00,
2013-09-27 07:52:00,54.2,51.0,30.26,NNW,337,3.7,7.0,90,0.00,,,0.00,Rainwise IP-100,2013-09-27 11:52:00,
2013-09-27 07:57:00,54.4,51.0,30.26,North,360,5.4,7.0,89,0.00,,,0.00,Rainwise IP-100,2013-09-27 11:57:00,
2013-09-27 08:03:00,54.7,51.0,30.26,NNW,337,5.1,7.0,88,0.00,,,0.00,Rainwise IP-100,2013-09-27 12:03:00,
2013-09-27 08:08:00,55.1,52.0,30.26,NNE,22,4.0,8.0,88,0.00,,,0.00,Rainwise IP-100,2013-09-27 12:08:00,
2013-09-27 08:10:00,55.3,51.0,30.27,North,360,6.3,8.0,87,0.00,,,0.00,Rainwise IP-100,2013-09-27 12:10:00,
2013-09-27 08:15:00,56.2,52.0,30.26,NNW,337,3.5,10.0,86,0.00,,,0.00,Rainwise IP-100,2013-09-27 12:15:00,
2013-09-27 08:21:00,56.9,52.0,30.27,NNE,22,4.4,11.0,84,0.00,,,0.00,Rainwise IP-100,2013-09-27 12:21:00,
2013-09-27 08:26:00,57.2,52.0,30.27,North,360,3.3,6.0,83,0.00,,,0.00,Rainwise IP-100,2013-09-27 12:26:00,
2013-09-27 08:32:00,57.7,52.0,30.27,North,360,7.9,7.9,82,0.00,,,0.00,Rainwise IP-100,2013-09-27 12:32:00,
2013-09-27 08:37:00,58.0,53.0,30.27,North,360,6.1,8.0,82,0.00,,,0.00,Rainwise IP-100,2013-09-27 12:37:00,
2013-09-27 08:43:00,58.0,53.0,30.27,NNE,22,3.5,8.0,81,0.00,,,0.00,Rainwise IP-100,2013-09-27 12:43:00,
2013-09-27 08:45:00,58.1,53.0,30.28,NNW,337,3.3,8.0,81,0.00,,,0.00,Rainwise IP-100,2013-09-27 12:45:00,
2013-09-27 08:50:00,58.2,52.0,30.27,NW,315,4.0,8.0,80,0.00,,,0.00,Rainwise IP-100,2013-09-27 12:50:00,
2013-09-27 08:56:00,58.3,52.0,30.28,NNE,22,3.3,7.0,80,0.00,,,0.00,Rainwise IP-100,2013-09-27 12:56:00,
2013-09-27 09:01:00,58.6,53.0,30.27,NNE,22,5.8,6.0,80,0.00,,,0.00,Rainwise IP-100,2013-09-27 13:01:00,
2013-09-27 09:06:00,59.1,53.0,30.28,North,360,2.8,7.0,80,0.00,,,0.00,Rainwise IP-100,2013-09-27 13:06:00,
2013-09-27 09:11:00,59.5,53.0,30.28,NNW,337,7.5,7.5,79,0.00,,,0.00,Rainwise IP-100,2013-09-27 13:11:00,
2013-09-27 09:16:00,59.9,53.0,30.28,NNE,22,4.4,7.0,78,0.00,,,0.00,Rainwise IP-100,2013-09-27 13:16:00,
2013-09-27 09:21:00,60.1,53.0,30.28,North,360,2.8,7.0,78,0.00,,,0.00,Rainwise IP-100,2013-09-27 13:21:00,
2013-09-27 09:26:00,60.3,53.0,30.28,NNE,22,1.4,8.0,77,0.00,,,0.00,Rainwise IP-100,2013-09-27 13:26:00,
2013-09-27 09:32:00,60.6,53.0,30.28,North,360,3.0,7.0,77,0.00,,,0.00,Rainwise IP-100,2013-09-27 13:32:00,
2013-09-27 09:37:00,60.6,53.0,30.28,ENE,67,7.0,7.0,76,0.00,,,0.00,Rainwise IP-100,2013-09-27 13:37:00,
2013-09-27 09:42:00,60.3,53.0,30.29,East,90,2.3,6.0,76,0.00,,,0.00,Rainwise IP-100,2013-09-27 13:42:00,
2013-09-27 09:47:00,60.2,53.0,30.28,East,90,3.5,5.0,77,0.00,,,0.00,Rainwise IP-100,2013-09-27 13:47:00,
2013-09-27 09:52:00,60.6,53.0,30.28,NE,45,3.0,5.0,76,0.00,,,0.00,Rainwise IP-100,2013-09-27 13:52:00,
2013-09-27 09:57:00,60.6,53.0,30.28,East,90,6.5,7.0,76,0.00,,,0.00,Rainwise IP-100,2013-09-27 13:57:00,
2013-09-27 10:02:00,60.3,53.0,30.29,ENE,67,4.9,8.0,76,0.00,,,0.00,Rainwise IP-100,2013-09-27 14:02:00,
2013-09-27 10:07:00,60.3,53.0,30.29,ENE,67,3.3,6.0,76,0.00,,,0.00,Rainwise IP-100,2013-09-27 14:07:00,
2013-09-27 10:11:00,60.7,53.0,30.28,East,90,4.9,8.0,76,0.00,,,0.00,Rainwise IP-100,2013-09-27 14:11:00,
2013-09-27 10:16:00,60.9,53.0,30.29,ENE,67,5.4,6.0,75,0.00,,,0.00,Rainwise IP-100,2013-09-27 14:16:00,
2013-09-27 10:22:00,61.4,53.0,30.29,ENE,67,3.7,6.0,75,0.00,,,0.00,Rainwise IP-100,2013-09-27 14:22:00,
2013-09-27 10:27:00,61.5,53.0,30.29,ESE,112,6.5,8.0,74,0.00,,,0.00,Rainwise IP-100,2013-09-27 14:27:00,
2013-09-27 10:33:00,61.0,53.0,30.29,ESE,112,7.5,10.0,75,0.00,,,0.00,Rainwise IP-100,2013-09-27 14:33:00,
2013-09-27 10:38:00,61.1,53.0,30.29,ESE,112,4.7,10.0,75,0.00,,,0.00,Rainwise IP-100,2013-09-27 14:38:00,
2013-09-27 10:43:00,61.2,53.0,30.29,ESE,112,5.8,8.0,74,0.00,,,0.00,Rainwise IP-100,2013-09-27 14:43:00,
2013-09-27 10:44:00,61.3,53.0,30.29,ESE,112,7.7,8.0,74,0.00,,,0.00,Rainwise IP-100,2013-09-27 14:44:00,
2013-09-27 10:49:00,61.0,53.0,30.29,East,90,4.4,10.0,74,0.00,,,0.00,Rainwise IP-100,2013-09-27 14:49:00,
2013-09-27 10:55:00,61.2,52.0,30.29,ESE,112,10.3,10.3,73,0.00,,,0.00,Rainwise IP-100,2013-09-27 14:55:00,
2013-09-27 11:00:00,61.3,52.0,30.29,ESE,112,6.1,11.0,72,0.00,,,0.00,Rainwise IP-100,2013-09-27 15:00:00,
2013-09-27 11:06:00,61.5,53.0,30.29,ESE,112,7.2,11.0,72,0.00,,,0.00,Rainwise IP-100,2013-09-27 15:06:00,
2013-09-27 11:11:00,61.7,53.0,30.28,ESE,112,7.2,12.0,72,0.00,,,0.00,Rainwise IP-100,2013-09-27 15:11:00,
2013-09-27 11:16:00,61.8,52.0,30.28,ESE,112,9.6,11.0,71,0.00,,,0.00,Rainwise IP-100,2013-09-27 15:16:00,
2013-09-27 11:17:00,61.8,52.0,30.29,ESE,112,9.3,11.0,71,0.00,,,0.00,Rainwise IP-100,2013-09-27 15:17:00,
2013-09-27 11:22:00,61.8,52.0,30.28,ESE,112,11.0,11.0,71,0.00,,,0.00,Rainwise IP-100,2013-09-27 15:22:00,
2013-09-27 11:28:00,61.9,53.0,30.29,ESE,112,9.6,13.0,71,0.00,,,0.00,Rainwise IP-100,2013-09-27 15:28:00,
2013-09-27 11:33:00,61.9,53.0,30.29,ESE,112,12.6,14.0,72,0.00,,,0.00,Rainwise IP-100,2013-09-27 15:33:00,
2013-09-27 11:39:00,62.1,53.0,30.28,East,90,7.7,14.0,72,0.00,,,0.00,Rainwise IP-100,2013-09-27 15:39:00,
2013-09-27 11:44:00,62.2,53.0,30.28,East,90,12.6,13.0,71,0.00,,,0.00,Rainwise IP-100,2013-09-27 15:44:00,
2013-09-27 11:49:00,62.1,53.0,30.29,ESE,112,11.7,15.0,71,0.00,,,0.00,Rainwise IP-100,2013-09-27 15:49:00,
2013-09-27 11:54:00,62.0,53.0,30.29,ESE,112,10.0,15.0,71,0.00,,,0.00,Rainwise IP-100,2013-09-27 15:54:00,
2013-09-27 11:59:00,62.0,53.0,30.29,ESE,112,10.5,15.0,71,0.00,,,0.00,Rainwise IP-100,2013-09-27 15:59:00,
2013-09-27 12:04:00,62.1,53.0,30.29,East,90,9.3,13.0,71,0.00,,,0.00,Rainwise IP-100,2013-09-27 16:04:00,
2013-09-27 12:09:00,62.0,53.0,30.29,ESE,112,10.5,13.0,71,0.00,,,0.00,Rainwise IP-100,2013-09-27 16:09:00,
2013-09-27 12:12:00,62.0,53.0,30.29,ESE,112,8.6,11.0,72,0.00,,,0.00,Rainwise IP-100,2013-09-27 16:12:00,
2013-09-27 12:17:00,62.0,53.0,30.29,ESE,112,10.0,11.0,72,0.00,,,0.00,Rainwise IP-100,2013-09-27 16:17:00,
2013-09-27 12:23:00,62.2,53.0,30.29,East,90,6.3,12.0,72,0.00,,,0.00,Rainwise IP-100,2013-09-27 16:23:00,
2013-09-27 12:28:00,62.2,53.0,30.29,ENE,67,7.9,13.0,72,0.00,,,0.00,Rainwise IP-100,2013-09-27 16:28:00,
2013-09-27 12:34:00,62.3,53.0,30.29,East,90,7.0,12.0,73,0.00,,,0.00,Rainwise IP-100,2013-09-27 16:34:00,
2013-09-27 12:39:00,62.3,53.0,30.29,ESE,112,9.1,13.0,73,0.00,,,0.00,Rainwise IP-100,2013-09-27 16:39:00,
2013-09-27 12:44:00,62.3,53.0,30.29,East,90,8.9,11.0,73,0.00,,,0.00,Rainwise IP-100,2013-09-27 16:44:00,
2013-09-27 12:45:00,62.3,53.0,30.28,ENE,67,4.2,11.0,73,0.00,,,0.00,Rainwise IP-100,2013-09-27 16:45:00,
2013-09-27 12:50:00,62.3,53.0,30.28,ENE,67,5.1,12.0,73,0.00,,,0.00,Rainwise IP-100,2013-09-27 16:50:00,
2013-09-27 12:56:00,62.4,54.0,30.29,East,90,5.6,10.0,73,0.00,,,0.00,Rainwise IP-100,2013-09-27 16:56:00,
2013-09-27 13:01:00,62.5,54.0,30.28,ESE,112,8.2,9.0,73,0.00,,,0.00,Rainwise IP-100,2013-09-27 17:01:00,
2013-09-27 13:06:00,62.4,54.0,30.28,ESE,112,10.0,11.0,73,0.00,,,0.00,Rainwise IP-100,2013-09-27 17:06:00,
2013-09-27 13:07:00,62.3,53.0,30.28,ESE,112,7.9,12.0,73,0.00,,,0.00,Rainwise IP-100,2013-09-27 17:07:00,
2013-09-27 13:12:00,62.2,53.0,30.28,ESE,112,6.8,13.0,73,0.00,,,0.00,Rainwise IP-100,2013-09-27 17:12:00,
2013-09-27 13:18:00,62.1,53.0,30.28,ESE,112,10.0,12.0,72,0.00,,,0.00,Rainwise IP-100,2013-09-27 17:18:00,
2013-09-27 13:23:00,62.2,53.0,30.28,ESE,112,8.6,12.0,72,0.00,,,0.00,Rainwise IP-100,2013-09-27 17:23:00,
2013-09-27 13:28:00,62.4,53.0,30.27,ESE,112,8.2,10.0,72,0.00,,,0.00,Rainwise IP-100,2013-09-27 17:28:00,
2013-09-27 13:29:00,62.4,54.0,30.28,East,90,10.0,10.0,73,0.00,,,0.00,Rainwise IP-100,2013-09-27 17:29:00,
2013-09-27 13:34:00,62.4,54.0,30.27,ESE,112,8.2,12.0,73,0.00,,,0.00,Rainwise IP-100,2013-09-27 17:34:00,
2013-09-27 13:40:00,62.2,53.0,30.28,ESE,112,7.5,12.0,72,0.00,,,0.00,Rainwise IP-100,2013-09-27 17:40:00,
2013-09-27 13:45:00,62.4,53.0,30.27,ESE,112,7.5,8.0,72,0.00,,,0.00,Rainwise IP-100,2013-09-27 17:45:00,
2013-09-27 13:51:00,62.6,54.0,30.27,ESE,112,7.5,9.0,73,0.00,,,0.00,Rainwise IP-100,2013-09-27 17:51:00,
2013-09-27 13:56:00,62.5,54.0,30.27,ESE,112,8.4,10.0,73,0.00,,,0.00,Rainwise IP-100,2013-09-27 17:56:00,
2013-09-27 14:01:00,62.5,54.0,30.27,ENE,67,5.8,9.0,73,0.00,,,0.00,Rainwise IP-100,2013-09-27 18:01:00,
2013-09-27 14:06:00,62.7,53.0,30.27,ESE,112,8.2,10.0,72,0.00,,,0.00,Rainwise IP-100,2013-09-27 18:06:00,
2013-09-27 14:11:00,62.7,53.0,30.27,East,90,5.8,10.0,72,0.00,,,0.00,Rainwise IP-100,2013-09-27 18:11:00,
2013-09-27 14:13:00,62.5,53.0,30.27,ENE,67,3.3,8.0,72,0.00,,,0.00,Rainwise IP-100,2013-09-27 18:13:00,
2013-09-27 14:18:00,62.6,53.0,30.27,ESE,112,6.5,7.0,72,0.00,,,0.00,Rainwise IP-100,2013-09-27 18:18:00,
2013-09-27 14:24:00,62.6,53.0,30.27,ENE,67,6.3,8.0,72,0.00,,,0.00,Rainwise IP-100,2013-09-27 18:24:00,
2013-09-27 14:29:00,62.6,53.0,30.27,ESE,112,6.5,11.0,72,0.00,,,0.00,Rainwise IP-100,2013-09-27 18:29:00,
2013-09-27 14:35:00,62.6,53.0,30.27,ESE,112,6.3,9.0,72,0.00,,,0.00,Rainwise IP-100,2013-09-27 18:35:00,
2013-09-27 14:40:00,62.5,53.0,30.27,East,90,5.8,10.0,72,0.00,,,0.00,Rainwise IP-100,2013-09-27 18:40:00,
2013-09-27 14:45:00,62.5,53.0,30.26,ESE,112,8.2,9.0,72,0.00,,,0.00,Rainwise IP-100,2013-09-27 18:45:00,
2013-09-27 14:46:00,62.4,53.0,30.27,ESE,112,4.9,9.0,72,0.00,,,0.00,Rainwise IP-100,2013-09-27 18:46:00,
2013-09-27 14:51:00,62.5,54.0,30.27,ENE,67,4.7,8.0,73,0.00,,,0.00,Rainwise IP-100,2013-09-27 18:51:00,
2013-09-27 14:57:00,62.7,54.0,30.26,East,90,4.9,9.0,73,0.00,,,0.00,Rainwise IP-100,2013-09-27 18:57:00,
2013-09-27 15:02:00,62.8,53.0,30.27,East,90,2.1,7.0,72,0.00,,,0.00,Rainwise IP-100,2013-09-27 19:02:00,
2013-09-27 15:07:00,62.9,54.0,30.27,East,90,6.3,6.3,72,0.00,,,0.00,Rainwise IP-100,2013-09-27 19:07:00,
2013-09-27 15:12:00,62.9,54.0,30.27,ESE,112,4.0,6.0,72,0.00,,,0.00,Rainwise IP-100,2013-09-27 19:12:00,
2013-09-27 15:17:00,62.8,53.0,30.26,ESE,112,6.3,7.0,72,0.00,,,0.00,Rainwise IP-100,2013-09-27 19:17:00,
2013-09-27 15:22:00,62.7,54.0,30.27,East,90,4.7,7.0,73,0.00,,,0.00,Rainwise IP-100,2013-09-27 19:22:00,
2013-09-27 15:27:00,62.7,54.0,30.26,East,90,5.1,6.0,73,0.00,,,0.00,Rainwise IP-100,2013-09-27 19:27:00,
2013-09-27 15:30:00,62.8,54.0,30.26,East,90,5.6,7.0,73,0.00,,,0.00,Rainwise IP-100,2013-09-27 19:30:00,
2013-09-27 15:35:00,62.8,54.0,30.26,ENE,67,1.4,6.0,73,0.00,,,0.00,Rainwise IP-100,2013-09-27 19:35:00,
2013-09-27 15:41:00,63.0,54.0,30.26,SE,135,4.0,4.0,72,0.00,,,0.00,Rainwise IP-100,2013-09-27 19:41:00,
2013-09-27 15:46:00,63.0,54.0,30.26,ENE,67,3.3,4.0,72,0.00,,,0.00,Rainwise IP-100,2013-09-27 19:46:00,
2013-09-27 15:51:00,63.0,54.0,30.27,East,90,4.0,4.0,73,0.00,,,0.00,Rainwise IP-100,2013-09-27 19:51:00,
2013-09-27 15:52:00,63.0,54.0,30.26,East,90,4.7,4.7,73,0.00,,,0.00,Rainwise IP-100,2013-09-27 19:52:00,
2013-09-27 15:57:00,63.0,54.0,30.26,East,90,0.0,4.0,72,0.00,,,0.00,Rainwise IP-100,2013-09-27 19:57:00,
2013-09-27 16:03:00,63.1,54.0,30.27,East,90,1.4,3.0,72,0.00,,,0.00,Rainwise IP-100,2013-09-27 20:03:00,
2013-09-27 16:08:00,63.3,54.0,30.27,ESE,112,2.6,3.0,72,0.00,,,0.00,Rainwise IP-100,2013-09-27 20:08:00,
2013-09-27 16:14:00,63.4,54.0,30.26,ESE,112,2.3,3.0,72,0.00,,,0.00,Rainwise IP-100,2013-09-27 20:14:00,
2013-09-27 16:19:00,63.4,54.0,30.27,SSE,157,3.5,3.5,72,0.00,,,0.00,Rainwise IP-100,2013-09-27 20:19:00,
2013-09-27 16:24:00,63.3,54.0,30.26,ESE,112,2.3,4.0,72,0.00,,,0.00,Rainwise IP-100,2013-09-27 20:24:00,
2013-09-27 16:25:00,63.3,54.0,30.26,ESE,112,2.3,4.0,72,0.00,,,0.00,Rainwise IP-100,2013-09-27 20:25:00,
2013-09-27 16:30:00,63.4,54.0,30.26,East,90,1.6,2.0,72,0.00,,,0.00,Rainwise IP-100,2013-09-27 20:30:00,
2013-09-27 16:36:00,63.5,54.0,30.26,NNE,22,1.6,2.0,72,0.00,,,0.00,Rainwise IP-100,2013-09-27 20:36:00,
2013-09-27 16:41:00,63.7,54.0,30.26,NNE,22,3.5,9.0,71,0.00,,,0.00,Rainwise IP-100,2013-09-27 20:41:00,
2013-09-27 16:47:00,63.9,53.0,30.26,NNE,22,5.1,7.0,69,0.00,,,0.00,Rainwise IP-100,2013-09-27 20:47:00,
2013-09-27 16:52:00,63.8,53.0,30.27,NNW,337,3.0,7.0,69,0.00,,,0.00,Rainwise IP-100,2013-09-27 20:52:00,
2013-09-27 16:57:00,63.7,53.0,30.27,NNE,22,5.4,9.0,69,0.00,,,0.00,Rainwise IP-100,2013-09-27 20:57:00,
2013-09-27 17:02:00,63.6,53.0,30.27,NE,45,2.6,8.0,70,0.00,,,0.00,Rainwise IP-100,2013-09-27 21:02:00,
2013-09-27 17:07:00,63.5,53.0,30.27,NNE,22,5.4,7.0,70,0.00,,,0.00,Rainwise IP-100,2013-09-27 21:07:00,
2013-09-27 17:12:00,63.4,53.0,30.27,NNW,337,3.3,7.0,70,0.00,,,0.00,Rainwise IP-100,2013-09-27 21:12:00,
2013-09-27 17:17:00,63.4,53.0,30.27,NNE,22,4.9,7.0,70,0.00,,,0.00,Rainwise IP-100,2013-09-27 21:17:00,
2013-09-27 17:23:00,63.3,53.0,30.27,North,360,0.0,7.0,71,0.00,,,0.00,Rainwise IP-100,2013-09-27 21:23:00,
2013-09-27 17:28:00,63.3,53.0,30.27,North,360,5.1,8.0,71,0.00,,,0.00,Rainwise IP-100,2013-09-27 21:28:00,
2013-09-27 17:33:00,63.1,53.0,30.27,NNE,22,2.8,7.0,71,0.00,,,0.00,Rainwise IP-100,2013-09-27 21:33:00,
2013-09-27 17:38:00,63.2,53.0,30.28,ENE,67,3.5,5.0,71,0.00,,,0.00,Rainwise IP-100,2013-09-27 21:38:00,
2013-09-27 17:43:00,63.2,53.0,30.27,North,360,2.6,6.0,71,0.00,,,0.00,Rainwise IP-100,2013-09-27 21:43:00,
2013-09-27 17:48:00,63.0,53.0,30.27,NNE,22,3.5,7.0,71,0.00,,,0.00,Rainwise IP-100,2013-09-27 21:48:00,
2013-09-27 17:53:00,62.9,53.0,30.28,North,360,3.5,7.0,71,0.00,,,0.00,Rainwise IP-100,2013-09-27 21:53:00,
2013-09-27 17:58:00,62.7,53.0,30.28,NNE,22,2.6,6.0,72,0.00,,,0.00,Rainwise IP-100,2013-09-27 21:58:00,
2013-09-27 18:03:00,62.6,53.0,30.28,North,360,5.4,6.0,72,0.00,,,0.00,Rainwise IP-100,2013-09-27 22:03:00,
2013-09-27 18:04:00,62.6,53.0,30.28,North,360,3.0,6.0,72,0.00,,,0.00,Rainwise IP-100,2013-09-27 22:04:00,
2013-09-27 18:09:00,62.6,54.0,30.28,North,360,3.5,4.0,73,0.00,,,0.00,Rainwise IP-100,2013-09-27 22:09:00,
2013-09-27 18:15:00,62.5,54.0,30.28,North,360,3.0,6.0,73,0.00,,,0.00,Rainwise IP-100,2013-09-27 22:15:00,
2013-09-27 18:20:00,62.4,54.0,30.28,North,360,5.4,5.4,73,0.00,,,0.00,Rainwise IP-100,2013-09-27 22:20:00,
2013-09-27 18:26:00,62.3,53.0,30.28,North,360,2.6,6.0,73,0.00,,,0.00,Rainwise IP-100,2013-09-27 22:26:00,
2013-09-27 18:31:00,62.2,53.0,30.28,North,360,2.3,4.0,73,0.00,,,0.00,Rainwise IP-100,2013-09-27 22:31:00,
2013-09-27 18:37:00,62.2,53.0,30.28,NNE,22,2.3,4.0,73,0.00,,,0.00,Rainwise IP-100,2013-09-27 22:37:00,
2013-09-27 18:42:00,62.1,53.0,30.28,North,360,2.8,4.0,74,0.00,,,0.00,Rainwise IP-100,2013-09-27 22:42:00,
2013-09-27 18:47:00,62.0,53.0,30.28,North,360,3.7,5.0,74,0.00,,,0.00,Rainwise IP-100,2013-09-27 22:47:00,
2013-09-27 18:52:00,61.9,53.0,30.28,North,360,2.8,6.0,74,0.00,,,0.00,Rainwise IP-100,2013-09-27 22:52:00,
2013-09-27 18:57:00,61.8,53.0,30.28,North,360,2.6,5.0,74,0.00,,,0.00,Rainwise IP-100,2013-09-27 22:57:00,
2013-09-27 18:59:00,61.8,53.0,30.28,North,360,3.5,5.0,74,0.00,,,0.00,Rainwise IP-100,2013-09-27 22:59:00,
2013-09-27 19:04:00,61.8,53.0,30.29,NNE,22,0.0,5.0,75,0.00,,,0.00,Rainwise IP-100,2013-09-27 23:04:00,
2013-09-27 19:10:00,61.8,53.0,30.29,North,360,2.6,4.0,75,0.00,,,0.00,Rainwise IP-100,2013-09-27 23:10:00,
2013-09-27 19:15:00,61.8,53.0,30.29,NNW,337,2.1,5.0,75,0.00,,,0.00,Rainwise IP-100,2013-09-27 23:15:00,
2013-09-27 19:21:00,61.7,53.0,30.29,NNW,337,3.7,5.0,75,0.00,,,0.00,Rainwise IP-100,2013-09-27 23:21:00,
2013-09-27 19:26:00,61.8,53.0,30.28,North,360,4.0,7.0,75,0.00,,,0.00,Rainwise IP-100,2013-09-27 23:26:00,
2013-09-27 19:32:00,61.8,53.0,30.28,North,360,3.0,6.0,74,0.00,,,0.00,Rainwise IP-100,2013-09-27 23:32:00,
2013-09-27 19:37:00,61.8,53.0,30.29,NNE,22,4.9,7.0,74,0.00,,,0.00,Rainwise IP-100,2013-09-27 23:37:00,
2013-09-27 19:43:00,61.7,53.0,30.29,NNE,22,0.0,6.0,74,0.00,,,0.00,Rainwise IP-100,2013-09-27 23:43:00,
2013-09-27 19:48:00,61.6,53.0,30.29,North,360,3.3,6.0,74,0.00,,,0.00,Rainwise IP-100,2013-09-27 23:48:00,
2013-09-27 19:54:00,61.4,53.0,30.29,NNW,337,4.0,6.0,75,0.00,,,0.00,Rainwise IP-100,2013-09-27 23:54:00,
2013-09-27 19:59:00,61.2,53.0,30.28,NNW,337,3.3,6.0,75,0.00,,,0.00,Rainwise IP-100,2013-09-27 23:59:00,
2013-09-27 20:04:00,61.0,53.0,30.29,North,360,4.2,6.0,76,0.00,,,0.00,Rainwise IP-100,2013-09-28 00:04:00,
2013-09-27 20:05:00,61.0,53.0,30.28,North,360,4.7,6.0,76,0.00,,,0.00,Rainwise IP-100,2013-09-28 00:05:00,
2013-09-27 20:10:00,60.9,53.0,30.29,NNW,337,4.7,7.0,76,0.00,,,0.00,Rainwise IP-100,2013-09-28 00:10:00,
2013-09-27 20:16:00,60.8,53.0,30.29,North,360,4.4,7.0,76,0.00,,,0.00,Rainwise IP-100,2013-09-28 00:16:00,
2013-09-27 20:21:00,60.7,53.0,30.29,NNE,22,5.8,7.0,76,0.00,,,0.00,Rainwise IP-100,2013-09-28 00:21:00,
2013-09-27 20:27:00,60.6,53.0,30.29,NNE,22,3.0,6.0,76,0.00,,,0.00,Rainwise IP-100,2013-09-28 00:27:00,
2013-09-27 20:32:00,60.3,53.0,30.29,NNW,337,4.2,6.0,77,0.00,,,0.00,Rainwise IP-100,2013-09-28 00:32:00,
2013-09-27 20:37:00,60.1,53.0,30.30,North,360,4.9,7.0,77,0.00,,,0.00,Rainwise IP-100,2013-09-28 00:37:00,
2013-09-27 20:42:00,60.1,53.0,30.30,North,360,3.5,6.0,78,0.00,,,0.00,Rainwise IP-100,2013-09-28 00:42:00,
2013-09-27 20:47:00,60.1,53.0,30.30,NNW,337,3.0,6.0,78,0.00,,,0.00,Rainwise IP-100,2013-09-28 00:47:00,
2013-09-27 20:52:00,60.1,53.0,30.30,NNW,337,5.8,7.0,78,0.00,,,0.00,Rainwise IP-100,2013-09-28 00:52:00,
2013-09-27 20:57:00,60.2,53.0,30.30,North,360,7.0,7.0,78,0.00,,,0.00,Rainwise IP-100,2013-09-28 00:57:00,
2013-09-27 21:00:00,60.2,53.0,30.30,North,360,4.2,7.0,77,0.00,,,0.00,Rainwise IP-100,2013-09-28 01:00:00,
2013-09-27 21:05:00,60.1,53.0,30.30,North,360,5.8,5.8,77,0.00,,,0.00,Rainwise IP-100,2013-09-28 01:05:00,
2013-09-27 21:11:00,59.8,52.0,30.30,NNW,337,4.9,5.0,77,0.00,,,0.00,Rainwise IP-100,2013-09-28 01:11:00,
2013-09-27 21:16:00,59.5,53.0,30.30,North,360,3.0,5.0,79,0.00,,,0.00,Rainwise IP-100,2013-09-28 01:16:00,
2013-09-27 21:21:00,59.2,53.0,30.30,North,360,4.0,4.0,79,0.00,,,0.00,Rainwise IP-100,2013-09-28 01:21:00,
2013-09-27 21:26:00,58.9,53.0,30.30,NNE,22,4.7,5.0,80,0.00,,,0.00,Rainwise IP-100,2013-09-28 01:26:00,
2013-09-27 21:31:00,58.7,53.0,30.31,NNW,337,4.0,5.0,81,0.00,,,0.00,Rainwise IP-100,2013-09-28 01:31:00,
2013-09-27 21:36:00,58.4,53.0,30.31,NNW,337,4.7,5.0,82,0.00,,,0.00,Rainwise IP-100,2013-09-28 01:36:00,
2013-09-27 21:41:00,58.2,53.0,30.31,North,360,3.0,5.0,83,0.00,,,0.00,Rainwise IP-100,2013-09-28 01:41:00,
2013-09-27 21:47:00,58.0,53.0,30.31,North,360,5.8,6.0,83,0.00,,,0.00,Rainwise IP-100,2013-09-28 01:47:00,
2013-09-27 21:52:00,57.8,53.0,30.31,North,360,3.5,7.0,84,0.00,,,0.00,Rainwise IP-100,2013-09-28 01:52:00,
2013-09-27 21:57:00,57.8,53.0,30.31,NNW,337,4.9,7.0,84,0.00,,,0.00,Rainwise IP-100,2013-09-28 01:57:00,
2013-09-27 22:02:00,57.9,53.0,30.32,North,360,7.0,8.0,84,0.00,,,0.00,Rainwise IP-100,2013-09-28 02:02:00,
2013-09-27 22:07:00,57.9,53.0,30.32,NNW,337,4.2,7.0,84,0.00,,,0.00,Rainwise IP-100,2013-09-28 02:07:00,
2013-09-27 22:12:00,57.9,53.0,30.32,NNW,337,5.4,8.0,84,0.00,,,0.00,Rainwise IP-100,2013-09-28 02:12:00,
2013-09-27 22:17:00,58.0,53.0,30.32,NNE,22,4.0,8.0,83,0.00,,,0.00,Rainwise IP-100,2013-09-28 02:17:00,
2013-09-27 22:22:00,58.1,53.0,30.32,North,360,5.8,8.0,83,0.00,,,0.00,Rainwise IP-100,2013-09-28 02:22:00,
2013-09-27 22:28:00,58.1,53.0,30.32,NNW,337,7.2,8.0,83,0.00,,,0.00,Rainwise IP-100,2013-09-28 02:28:00,
2013-09-27 22:33:00,58.2,53.0,30.32,NNE,22,6.1,7.0,83,0.00,,,0.00,Rainwise IP-100,2013-09-28 02:33:00,
2013-09-27 22:38:00,58.3,53.0,30.32,NNW,337,6.8,9.0,82,0.00,,,0.00,Rainwise IP-100,2013-09-28 02:38:00,
2013-09-27 22:43:00,58.4,53.0,30.32,North,360,5.6,7.0,82,0.00,,,0.00,Rainwise IP-100,2013-09-28 02:43:00,
2013-09-27 22:48:00,58.6,53.0,30.32,NNW,337,3.3,8.0,81,0.00,,,0.00,Rainwise IP-100,2013-09-28 02:48:00,
2013-09-27 22:53:00,58.8,53.0,30.33,North,360,6.1,8.0,81,0.00,,,0.00,Rainwise IP-100,2013-09-28 02:53:00,
2013-09-27 22:58:00,58.9,53.0,30.32,NNW,337,6.3,8.0,80,0.00,,,0.00,Rainwise IP-100,2013-09-28 02:58:00,
2013-09-27 23:04:00,59.1,53.0,30.33,NNW,337,4.9,8.0,80,0.00,,,0.00,Rainwise IP-100,2013-09-28 03:04:00,
2013-09-27 23:09:00,59.3,53.0,30.33,North,360,4.9,9.0,79,0.00,,,0.00,Rainwise IP-100,2013-09-28 03:09:00,
2013-09-27 23:14:00,59.5,53.0,30.33,North,360,7.5,10.0,79,0.00,,,0.00,Rainwise IP-100,2013-09-28 03:14:00,
2013-09-27 23:19:00,59.5,53.0,30.33,North,360,2.8,8.0,79,0.00,,,0.00,Rainwise IP-100,2013-09-28 03:19:00,
2013-09-27 23:24:00,59.4,53.0,30.33,North,360,6.5,7.0,79,0.00,,,0.00,Rainwise IP-100,2013-09-28 03:24:00,
2013-09-27 23:29:00,59.2,53.0,30.33,North,360,5.8,12.0,79,0.00,,,0.00,Rainwise IP-100,2013-09-28 03:29:00,
2013-09-27 23:34:00,59.0,53.0,30.32,NNW,337,4.0,8.0,79,0.00,,,0.00,Rainwise IP-100,2013-09-28 03:34:00,
2013-09-27 23:39:00,59.0,53.0,30.33,North,360,4.2,8.0,80,0.00,,,0.00,Rainwise IP-100,2013-09-28 03:39:00,
2013-09-27 23:45:00,59.0,53.0,30.32,NNE,22,5.1,9.0,80,0.00,,,0.00,Rainwise IP-100,2013-09-28 03:45:00,
2013-09-27 23:50:00,59.0,53.0,30.33,North,360,1.6,8.0,80,0.00,,,0.00,Rainwise IP-100,2013-09-28 03:50:00,
2013-09-27 23:51:00,59.0,53.0,30.33,North,360,4.4,7.0,80,0.00,,,0.00,Rainwise IP-100,2013-09-28 03:51:00,
2013-09-27 23:56:00,59.0,53.0,30.33,North,360,3.3,6.0,80,0.00,,,0.00,Rainwise IP-100,2013-09-28 03:56:00,